{"data":{"norad_id":62743,"epoch":"2026-05-25T04:46:58.916064Z","epoch_age_seconds":68120,"freshness":"FRESH","line1":"1 62743U 25014J   26145.19929301  .00023138  00000+0  84730-3 0  9997","line2":"2 62743  42.9975  89.6470 0001202 260.7719  99.2997 15.27595485 74873","mean_motion":15.27595485,"eccentricity":0.0001202,"inclination_deg":42.9975,"raan_deg":89.647,"arg_perigee_deg":260.7719,"mean_anomaly_deg":99.2997,"bstar":0.0008473,"rev_number":7487,"period_min":94.265793146148,"perigee_km":482.17801977524,"apogee_km":483.82743776604,"semimajor_km":6861.1397287706,"source":"CELESTRAK","updated_at":"2026-05-25T13:38:19.739781Z"}}